Weather History for K11R - October, 2013

Change the Weather History Date:

Thursday, October 31, 2013

  Actual Average (KCLL) Record (KCLL)
Temperature  
Mean Temperature 72 °F 66 °F  
Max Temperature 84 °F 77 °F 90 °F (1916)
Min Temperature 59 °F 56 °F 29 °F (1993)
Degree Days  
Heating Degree Days 0 3  
Month to date heating degree days 33  
Since 1 July heating degree days 37  
Cooling Degree Days 6 4  
Month to date cooling degree days 216  
Year to date cooling degree days 3012  
Growing Degree Days 22 (Base 50)    
Moisture  
Dew Point 61 °F    
Average Humidity 69    
Maximum Humidity 91    
Minimum Humidity 19    
Precipitation  
Precipitation 1.12 in 0.12 in 2.51 in (1981)
Month to date precipitation 4.91  
Year to date precipitation 33.61  
Sea Level Pressure  
Sea Level Pressure 29.84 in    
Wind  
Wind Speed 10 mph (WSW)    
Max Wind Speed 21 mph    
Max Gust Speed 48 mph    
Visibility 9 miles    
Events Rain , Thunderstorm    
T = Trace of Precipitation, MM = Missing Value Source: NWS Daily Summary

Daily Weather History Graph

Daily Weather History Graph

Search for Another Location

Airport or City:

Trip Planner

Search our weather history database for the weather conditions in past years. The results will help you decide how hot, cold, wet, or windy it might be!

Date:

Astronomy

Oct. 31, 2013 Rise Set
Actual Time 7:39 AM CDT 6:38 PM CDT
Civil Twilight 7:14 AM CDT 7:03 PM CDT
Nautical Twilight 6:46 AM CDT 7:31 PM CDT
Astronomical Twilight 6:17 AM CDT 7:59 PM CDT
Moon 4:41 AM CDT (10/31) 4:47 PM CDT (10/31)
Length of Visible Light 11h 49m
Length of Day
10h 59m
Waning Crescent, 10% of the Moon is Illuminated
Oct 31
Waning Crescent
Nov 3
New
Nov 9
First Quarter
Nov 17
Full
Nov 25
Last Quarter

Hourly Weather History & Observations

Time (CDT) Temp. Heat Index Dew Point Humidity Pressure Visibility Wind Dir Wind Speed Gust Speed Precip Events Conditions
12:15 AM 80.6 °F 86.2 °F 75.2 °F 84% 29.83 in 10.0 mi South 13.8 mph 21.9 mph N/A   Mostly Cloudy
12:35 AM 80.6 °F 86.2 °F 75.2 °F 84% 29.83 in 10.0 mi South 12.7 mph 21.9 mph N/A   Mostly Cloudy
12:55 AM 80.8 °F 86.5 °F 75.0 °F 83% 29.82 in 10.0 mi South 13.8 mph 19.6 mph N/A   Scattered Clouds
1:15 AM 80.8 °F 86.3 °F 74.7 °F 82% 29.82 in 10.0 mi South 17.3 mph 21.9 mph N/A   Scattered Clouds
1:35 AM 80.8 °F 86.3 °F 74.7 °F 82% 29.81 in 10.0 mi South 11.5 mph 20.7 mph N/A   Mostly Cloudy
1:55 AM 80.6 °F 85.9 °F 74.5 °F 82% 29.81 in 10.0 mi South 11.5 mph 18.4 mph N/A Thunderstorm Mostly Cloudy
2:15 AM 80.4 °F 85.6 °F 74.7 °F 83% 29.80 in 10.0 mi South 11.5 mph 19.6 mph N/A   Mostly Cloudy
2:35 AM 80.6 °F 85.9 °F 74.7 °F 82% 29.79 in 10.0 mi South 13.8 mph 17.3 mph N/A   Overcast
2:55 AM 80.6 °F 86.0 °F 74.8 °F 83% 29.79 in 10.0 mi South 12.7 mph - N/A   Overcast
3:15 AM 81.0 °F 86.5 °F 74.7 °F 81% 29.79 in 10.0 mi South 15.0 mph 20.7 mph N/A   Overcast
3:35 AM 81.0 °F 86.5 °F 74.7 °F 81% 29.77 in 10.0 mi South 13.8 mph 17.3 mph N/A Thunderstorm Thunderstorm
3:55 AM 81.1 °F 87.0 °F 74.8 °F 81% 29.77 in 10.0 mi SSW 15.0 mph - N/A Thunderstorm Mostly Cloudy
4:15 AM 81.5 °F 87.4 °F 74.5 °F 79% 29.77 in 10.0 mi SSW 16.1 mph 21.9 mph N/A Thunderstorm Thunderstorm
4:35 AM 74.7 °F - 70.2 °F 86% 29.80 in 1.5 mi West 11.5 mph 48.3 mph 0.26 in Rain , Thunderstorm Heavy Thunderstorms and Rain
4:55 AM 73.4 °F - 70.7 °F 91% 29.79 in 10.0 mi West 8.1 mph - 0.29 in Rain , Thunderstorm Rain
5:15 AM 73.4 °F - 70.7 °F 91% 29.81 in 7.0 mi West 11.5 mph - 0.03 in Rain , Thunderstorm Heavy Thunderstorms and Rain
5:35 AM 72.9 °F - 70.2 °F 91% 29.84 in 5.0 mi West 11.5 mph 17.3 mph 0.10 in Rain , Thunderstorm Light Thunderstorms and Rain
5:55 AM 71.6 °F - 68.7 °F 91% 29.84 in 7.0 mi West 9.2 mph - 0.17 in Rain Light Rain
6:15 AM 70.9 °F - 68.0 °F 91% 29.84 in 7.0 mi WSW 6.9 mph - 0.04 in Rain , Thunderstorm Light Thunderstorms and Rain
6:35 AM 70.5 °F - 67.3 °F 89% 29.83 in 10.0 mi WSW 5.8 mph - 0.05 in Rain Rain
6:55 AM 70.7 °F - 67.5 °F 89% 29.83 in 10.0 mi WSW 3.5 mph - 0.06 in Rain Rain
7:15 AM 70.3 °F - 67.5 °F 91% 29.85 in 7.0 mi West 6.9 mph - 0.02 in Rain , Thunderstorm Rain
7:35 AM 70.0 °F - 67.1 °F 91% 29.85 in 3.0 mi NW 8.1 mph - 0.26 in Rain , Thunderstorm Heavy Thunderstorms and Rain
7:55 AM 69.8 °F - 67.1 °F 91% 29.86 in 5.0 mi SW 6.9 mph - 0.46 in Rain Heavy Rain
8:15 AM 69.8 °F - 66.9 °F 91% 29.85 in 5.0 mi WSW 8.1 mph - 0.07 in Rain Rain
8:35 AM 69.6 °F - 66.2 °F 89% 29.84 in 10.0 mi SW 6.9 mph - 0.08 in Rain Light Rain
8:55 AM 70.0 °F - 66.2 °F 88% 29.84 in 10.0 mi West 6.9 mph - 0.08 in   Light Drizzle
9:15 AM 70.0 °F - 66.4 °F 88% 29.84 in 10.0 mi SW 4.6 mph - N/A Rain Light Rain
9:35 AM 70.3 °F - 67.1 °F 89% 29.85 in 7.0 mi South 5.8 mph - 0.02 in Rain Rain
9:55 AM 70.3 °F - 67.3 °F 90% 29.82 in 5.0 mi SE 3.5 mph - 0.06 in Rain Rain
10:15 AM 70.7 °F - 67.8 °F 91% 29.84 in 10.0 mi South 5.8 mph - N/A   Scattered Clouds
10:35 AM 70.9 °F - 68.0 °F 91% 29.85 in 10.0 mi SSW 4.6 mph - N/A   Clear
10:55 AM 71.4 °F - 68.2 °F 89% 29.86 in 10.0 mi SW 4.6 mph - N/A Rain Light Rain
11:15 AM 72.0 °F - 68.7 °F 89% 29.85 in 10.0 mi SW 5.8 mph - N/A   Clear
11:35 AM 72.9 °F - 69.4 °F 89% 29.84 in 10.0 mi SW 5.8 mph - N/A Rain Light Rain
11:55 AM 73.8 °F - 70.0 °F 88% 29.84 in 10.0 mi SW 4.6 mph - N/A   Scattered Clouds
12:15 PM 75.4 °F - 71.2 °F 87% 29.84 in 10.0 mi WSW 6.9 mph - N/A   Clear
12:35 PM 77.0 °F - 70.7 °F 81% 29.84 in 10.0 mi West 6.9 mph - N/A   Clear
12:55 PM 79.7 °F - 70.9 °F 74% 29.84 in 10.0 mi West 8.1 mph - N/A   Clear
1:15 PM 79.9 °F - 70.2 °F 72% 29.83 in 10.0 mi West 10.4 mph - N/A   Clear
1:35 PM 81.3 °F 84.8 °F 69.8 °F 68% 29.82 in 10.0 mi WNW 9.2 mph - N/A   Clear
1:55 PM 81.9 °F 84.1 °F 66.2 °F 59% 29.83 in 10.0 mi WNW 12.7 mph 17.3 mph N/A   Clear
2:15 PM 84.6 °F - 50.7 °F 31% 29.82 in 10.0 mi WNW 15.0 mph 28.8 mph N/A   Clear
2:35 PM 84.6 °F - 48.2 °F 28% 29.82 in 10.0 mi NW 12.7 mph 19.6 mph N/A   Clear
2:55 PM 84.2 °F - 43.0 °F 23% 29.81 in 10.0 mi NW 13.8 mph 20.7 mph N/A   Clear
3:15 PM 84.2 °F - 45.1 °F 25% 29.81 in 10.0 mi NW 10.4 mph 19.6 mph N/A   Clear
3:35 PM 84.2 °F - 40.8 °F 22% 29.81 in 10.0 mi WNW 20.7 mph 25.3 mph N/A   Clear
3:55 PM 82.4 °F - 39.9 °F 22% 29.81 in 10.0 mi WNW 15.0 mph 20.7 mph N/A   Clear
4:15 PM 83.1 °F - 40.3 °F 22% 29.81 in 10.0 mi WNW 6.9 mph 20.7 mph N/A   Clear
4:35 PM 83.1 °F - 37.0 °F 19% 29.82 in 10.0 mi WNW 12.7 mph 18.4 mph N/A   Clear
4:55 PM 80.8 °F - 36.9 °F 21% 29.82 in 10.0 mi WNW 10.4 mph - N/A   Clear
5:15 PM 81.1 °F - 36.3 °F 20% 29.82 in 10.0 mi NW 9.2 mph 12.7 mph N/A   Clear
5:35 PM 79.9 °F - 36.3 °F 21% 29.82 in 10.0 mi NW 10.4 mph - N/A   Clear
5:55 PM 78.8 °F - 36.3 °F 22% 29.83 in 10.0 mi NW 8.1 mph - N/A   Clear
6:15 PM 75.9 °F - 40.1 °F 28% 29.84 in 10.0 mi NNW 5.8 mph - N/A   Clear
6:35 PM 73.4 °F - 43.5 °F 34% 29.85 in 10.0 mi NW 4.6 mph - N/A   Clear
6:55 PM 72.5 °F - 43.9 °F 36% 29.85 in 10.0 mi NW 4.6 mph - N/A   Clear
7:15 PM 71.4 °F - 44.6 °F 38% 29.87 in 10.0 mi NNW 6.9 mph - N/A   Clear
7:35 PM 68.9 °F - 47.8 °F 47% 29.87 in 10.0 mi North 6.9 mph - N/A   Clear
7:55 PM 68.9 °F - 48.2 °F 48% 29.87 in 10.0 mi North 6.9 mph - N/A   Clear
8:15 PM 67.8 °F - 49.1 °F 51% 29.87 in 10.0 mi North 5.8 mph - N/A   Clear
8:35 PM 67.1 °F - 49.1 °F 52% 29.88 in 10.0 mi North 3.5 mph - N/A   Clear
8:55 PM 65.8 °F - 51.8 °F 60% 29.89 in 10.0 mi Calm Calm - N/A   Clear
9:15 PM 64.4 °F - 53.4 °F 67% 29.90 in 10.0 mi Calm Calm - N/A   Clear
9:35 PM 63.5 °F - 53.8 °F 71% 29.90 in 10.0 mi Calm Calm - N/A   Clear
9:55 PM 63.0 °F - 52.9 °F 70% 29.90 in 10.0 mi Calm Calm - N/A   Clear
10:15 PM 61.3 °F - 54.5 °F 78% 29.90 in 10.0 mi Calm Calm - N/A   Clear
10:35 PM 60.8 °F - 54.5 °F 80% 29.90 in 10.0 mi Calm Calm - N/A   Clear
10:55 PM 60.6 °F - 54.9 °F 81% 29.90 in 10.0 mi Calm Calm - N/A   Clear
11:15 PM 59.4 °F - 54.5 °F 84% 29.91 in 10.0 mi Calm Calm - N/A   Clear
11:35 PM 59.4 °F - 55.4 °F 87% 29.91 in 10.0 mi Calm Calm - N/A   Clear
11:55 PM 59.7 °F - 55.8 °F 87% 29.91 in 10.0 mi Calm Calm - N/A   Clear